This is the latest recevied weather packets stored in our database for station/object KD5KNZ-13. If no packets are shown the sender has not sent any weather packets the latest 10 day(s).
| Time | Temp. | Humidity | Pressure | Rain* | Wind** | Luminosity | Snow |
|---|---|---|---|---|---|---|---|
| 1777815954 | 12.78° C | 94% | 1021.9 hPa | 0 mm | - | - | - |
| 1777814145 | 11.11° C | 96% | 1021.6 hPa | 0 mm | - | - | - |
| 1777807846 | 7.78° C | 94% | 1020.7 hPa | 0 mm | - | - | - |
| 1777806040 | 7.78° C | 94% | 1020.2 hPa | 0 mm | - | - | - |
| 1777804246 | 7.78° C | 94% | 1020.3 hPa | 0 mm | - | - | - |
| 1777800647 | 8.33° C | 94% | 1019.9 hPa | 0 mm | - | - | - |
| 1777796175 | 8.33° C | 93% | 1019.5 hPa | 0 mm | - | - | - |
| 1777795261 | 8.89° C | 93% | 1019.4 hPa | 0 mm | - | - | - |
| 1777792549 | 9.44° C | 91% | 1019.3 hPa | 0 mm | - | - | - |
| 1777784442 | 12.22° C | 86% | 1019 hPa | 0 mm | - | - | - |
| 1777773649 | 13.33° C | 86% | 1017.9 hPa | 0 mm | - | - | - |
| 1777770946 | 15.56° C | 74% | 1017.4 hPa | 0 mm | - | - | - |
| 1777769165 | 17.78° C | 69% | 1017.1 hPa | 0 mm | - | - | - |
| 1777767358 | 19.44° C | 53% | 1016.6 hPa | 0 mm | - | - | - |
| 1777764660 | 20.56° C | 46% | 1015.9 hPa | 0.25 mm | - | - | - |
| 1777762846 | 21.11° C | 46% | 1015.7 hPa | 0.25 mm | - | - | - |
| 1777760158 | 21.11° C | 44% | 1015.5 hPa | 0 mm | - | - | - |
| 1777757449 | 21.67° C | 42% | 1015.3 hPa | 0.25 mm | - | - | - |
| 1777755645 | 22.22° C | 43% | 1015.3 hPa | 0.25 mm | - | - | - |
| 1777752939 | 22.22° C | 42% | 1015.6 hPa | 0.51 mm | - | - | - |
| 1777750235 | 21.67° C | 47% | 1016 hPa | 0.51 mm | - | - | - |
| 1777748450 | 21.11° C | 51% | 1016 hPa | 0.76 mm | - | - | - |
| 1777741238 | 19.44° C | 67% | 1016.7 hPa | 1.02 mm | - | - | - |
| 1777739455 | 19.44° C | 71% | 1016.8 hPa | 1.27 mm | - | - | - |
| 1777735854 | 17.22° C | 79% | 1016.3 hPa | 1.02 mm | - | - | - |
* Rain latest hour (hover to see other rain measurements)
** Current wind speed in m/s (hover to see current wind gust speed)